Regional Weather Roundup
Issued by NWS Newport/Morehead, NC

Current Version | Previous Version | Graphics & Text | Print | Product List | Glossary Off
Versions: 1 2 3 4 5 6 7 8 9 10 11 12 13 14 15 16 17 18 19 20 21 22 23 24 25 26 27 28 29 30 31 32 33 34 35 36 37 38 39 40 41 42 43 44 45 46 47 48 49 50

000
ASUS42 KMHX 222124
RWRMHX
WEATHER ROUNDUP FOR EASTERN NORTH CAROLINA
NATIONAL WEATHER SERVICE NEWPORT/MOREHEAD CITY NC
500 PM EDT FRI MAY 22 2015

NOTE: "FAIR" INDICATES FEW OR NO CLOUDS BELOW 12,000 FEET
WITH NO SIGNIFICANT WEATHER AND/OR OBSTRUCTIONS TO VISIBILITY

NCZ015>017-031-032-045>047-102-103-222200-
NORTH COAST

CITY           SKY/WX    TMP DP  RH WIND       PRES   REMARKS
EDENTON        SUNNY     72  46  39 NW6       30.17S
ELIZABETH CITY SUNNY     73  46  38 CALM      30.17R
KITTY HAWK     CLEAR     67  41  38 E5        30.17S
MANTEO         SUNNY     67  46  45 CALM      30.18S

$$

NCZ045>047-081-094-103-104-222200-
CENTRAL COAST

CITY           SKY/WX    TMP DP  RH WIND       PRES   REMARKS
FRISCO         SUNNY     67  46  47 VRB6      30.18S
SWANQUARTER      N/A     72 N/A N/A E1        30.15R

$$

NCZ095-097-098-100-101-222200-
SOUTHERN COAST

CITY           SKY/WX    TMP DP  RH WIND       PRES   REMARKS
BEAUFORT       PTSUNNY   72  53  51 VRB6      30.17R
CEDAR ISLAND     N/A     72 N/A N/A N2G8      30.21S
JACKSONVILLE   MOSUNNY   74  49  41 NW9       30.17R
PINEY ISLAND   CLEAR    N/A N/A N/A CALM      30.18R
WILMINGTON     PTSUNNY   73  54  51 N6        30.17S


$$

NCZ011>013-027>030-043-044-078>080-089-090>093-098-222200-
COASTAL PLAIN

CITY           SKY/WX    TMP DP  RH WIND       PRES   REMARKS
AHOSKIE        SUNNY     71  42  35 NW5       30.17S
CLINTON        SUNNY     74  50  43 NW5       30.18S
ELIZABETHTOWN  SUNNY     74  48  39 NW7       30.18R
GOLDSBORO      SUNNY     74  45  35 VRB5      30.15S
GREENVILLE     SUNNY     73  45  35 W6        30.19S
HAVELOCK       SUNNY     75  50  41 N8        30.18R
KENANSVILLE    MOSUNNY   72  45  38 NW6       30.19R
KINSTON        SUNNY     73  45  35 NE3       30.18S
NEW BERN       SUNNY     71  48  43 N8        30.19R
RICHLANDS      MOSUNNY   73  48  40 NW6       30.18S
ROCKY MOUNT    SUNNY     74  43  32 MISG      30.18R
WASHINGTON     SUNNY    N/A N/A N/A N5        30.18S
WHITEVILLE     MOSUNNY   74  51  45 CALM      30.17R

$$

AMZ130-135-150-152-154-156-158-170-250-252-270-ANZ085-086-088-633-658-670-222200-
MARINE OBSERVATIONS

STATION/POSITION TIME  TEMP    WIND        PRES    WAVE   SWELL
                       AIR SEA DIR/SP/G            HT/PER HT/PER
                 (UTC) (F)     (DEG/KT/KT) (MB)    (FT/S) (FT/S)
CHESAPEAKE LIGHT 2100   65     320/  3/  3 1021.9
64 E VA BEACH    2050   61 61  280/ 10/ 12 1021.1    4/ 7   3/ 7
DUCK             2100   67 68  140/  6/  7 1021.0
2 E DUCK         2011      66                N/A     3/ 7
OREGON INLET     2100   65 68   40/  8/ 10 1022.0
13E OREGON INLT  2100      62                N/A     3/ 7
HATTERAS CG      2100   66 72   50/  7/ 10 1021.7
DIAMOND BUOY     2050   65 77   20/  8/ 12 1022.1    3/ 8   3/ 8
CAPE LOOKOUT     2100   67     100/  9/ 11 1021.7
BEAUFORT LAB     2100   70 75  180/ 14/ 15 1020.8
27 SE WRIGHTSVLE 2100   65 77   80/  2/  4   N/A
5 SE WRIGHTSVLE  2008   69 77  120/  6/  8 1021.9
225 S CAPE HAT   2050   73 75   50/ 16/ 17 1020.1    5/ 6   2/ 8
41 SE CHARLESTON 2050   70 76   30/ 16/ 17 1021.2    5/ 6   2/13

$$



USA.gov is the U.S. government's official web portal to all federal, state and local government web resources and services.